Weather History for EGPH - January, 2012

Change the Weather History Date:

Tuesday, January 24, 2012

  Actual Average Record
Temperature  
Mean Temperature 38 °F -  
Max Temperature 41 °F 44 °F 51 °F (2003)
Min Temperature 35 °F 32 °F 26 °F (2002)
Degree Days  
Heating Degree Days 27    
Moisture  
Dew Point 37 °F    
Average Humidity 94    
Maximum Humidity 100    
Minimum Humidity 87    
Precipitation  
Precipitation 0.00 in 0.06 in - ()
Sea Level Pressure  
Sea Level Pressure 29.92 in    
Wind  
Wind Speed 4 mph ()    
Max Wind Speed 13 mph    
Max Gust Speed -    
Visibility 4.3 miles    
Events Fog , Rain    
Averages and records for this station are not official NWS values.
T = Trace of Precipitation, MM = Missing Value Source: Averaged Metar Reports

Daily Weather History Graph

Daily Weather History Graph

Search for Another Location

Airport or City:

Trip Planner

Search our weather history database for the weather conditions in past years. The results will help you decide how hot, cold, wet, or windy it might be!

Date:

Astronomy

Jan. 24, 2012 Rise Set
Actual Time 8:22 AM GMT 4:28 PM GMT
Civil Twilight 7:40 AM GMT 5:11 PM GMT
Nautical Twilight 6:54 AM GMT 5:57 PM GMT
Astronomical Twilight 6:10 AM GMT 6:41 PM GMT
Moon 8:22 AM GMT (1/24) 6:31 PM GMT (1/24)
Length of Visible Light 9h 30m
Length of Day
8h 05m
New Moon, 2% of the Moon is Illuminated
Jan 24
New Moon
Jan 31
First Quarter
Feb 7
Full
Feb 14
Last Quarter
Feb 21
New

Hourly Weather History & Observations

Time (GMT) Temp. Windchill Dew Point Humidity Pressure Visibility Wind Dir Wind Speed Gust Speed Precip Events Conditions
12:20 AM 37.4 °F 32.8 °F 33.8 °F 87% 30.04 in 6.2 mi WSW 5.8 mph - N/A   Partly Cloudy
12:50 AM 37.4 °F 32.8 °F 33.8 °F 87% 30.01 in 6.2 mi WSW 5.8 mph - N/A   Partly Cloudy
1:20 AM 37.4 °F 32.8 °F 33.8 °F 87% 30.01 in - WSW 5.8 mph - N/A   Clear
1:50 AM 37.4 °F 32.1 °F 33.8 °F 87% 30.01 in - WSW 6.9 mph - N/A   Clear
2:20 AM 37.4 °F 33.8 °F 33.8 °F 87% 29.98 in - WSW 4.6 mph - N/A   Clear
2:50 AM 37.4 °F 33.8 °F 33.8 °F 87% 29.98 in 6.2 mi WSW 4.6 mph - N/A   Unknown
3:20 AM 37.4 °F 31.4 °F 35.6 °F 93% 29.98 in 6.2 mi WSW 8.1 mph - N/A Rain Rain
3:50 AM 39.2 °F 31.6 °F 35.6 °F 87% 29.98 in 6.2 mi SW 12.7 mph - N/A Rain Light Rain
4:20 AM 37.4 °F 29.8 °F 33.8 °F 87% 29.98 in 6.2 mi SW 11.5 mph - N/A Rain Light Rain
4:50 AM 37.4 °F 30.8 °F 33.8 °F 87% 29.98 in 6.2 mi SW 9.2 mph - N/A Rain Light Rain
5:20 AM 37.4 °F 32.8 °F 33.8 °F 87% 29.98 in 6.2 mi SW 5.8 mph - N/A Rain Light Rain
5:50 AM 37.4 °F - 35.6 °F 93% 29.98 in 6.2 mi WNW 2.3 mph - N/A Rain Light Rain
6:20 AM 35.6 °F - 35.6 °F 100% 29.95 in 5.0 mi NNE 2.3 mph - N/A Rain Light Rain
6:50 AM 35.6 °F - 35.6 °F 100% 29.95 in 4.3 mi NE 2.3 mph - N/A Rain Light Rain
7:20 AM 37.4 °F 33.8 °F 35.6 °F 93% 29.95 in 6.2 mi East 4.6 mph - N/A Rain Light Rain
7:50 AM 37.4 °F 32.1 °F 33.8 °F 87% 29.95 in 6.2 mi East 6.9 mph - N/A Rain Light Rain
8:20 AM 37.4 °F 31.4 °F 35.6 °F 93% 29.95 in 6.2 mi ENE 8.1 mph - N/A   Mostly Cloudy
8:50 AM 37.4 °F 32.8 °F 35.6 °F 93% 29.95 in 6.2 mi ENE 5.8 mph - N/A   Overcast
9:20 AM 37.4 °F 32.1 °F 35.6 °F 93% 29.92 in 6.2 mi ENE 6.9 mph - N/A   Overcast
9:50 AM 37.4 °F 33.8 °F 35.6 °F 93% 29.92 in 6.2 mi NE 4.6 mph - N/A   Overcast
10:20 AM 37.4 °F 32.8 °F 35.6 °F 93% 29.92 in 6.2 mi NE 5.8 mph - N/A   Mostly Cloudy
10:50 AM 37.4 °F 32.8 °F 35.6 °F 93% 29.92 in 6.2 mi NNE 5.8 mph - N/A   Overcast
11:20 AM 39.2 °F 35.9 °F 37.4 °F 93% 29.92 in 6.2 mi NNE 4.6 mph - N/A   Overcast
11:50 AM 39.2 °F 35.9 °F 37.4 °F 93% 29.92 in 6.2 mi NNE 4.6 mph - N/A   Overcast
12:20 PM 39.2 °F - 37.4 °F 93% 29.92 in 4.3 mi Variable 2.3 mph - N/A   Light Drizzle
12:50 PM 39.2 °F - 37.4 °F 93% 29.92 in 5.6 mi Variable 2.3 mph - N/A Rain Light Rain
1:20 PM 41.0 °F - 37.4 °F 87% 29.92 in 1.9 mi NNW 2.3 mph - N/A   Haze
1:50 PM 39.2 °F - 37.4 °F 93% 29.92 in 3.7 mi Calm Calm - N/A   Light Drizzle
2:20 PM 39.2 °F - 37.4 °F 93% 29.89 in 2.2 mi Calm Calm - N/A   Light Drizzle
2:50 PM 39.2 °F - 39.2 °F 100% 29.89 in 3.7 mi Variable 2.3 mph - N/A   Light Drizzle
3:20 PM 39.2 °F - 39.2 °F 100% 29.89 in 2.8 mi NE 2.3 mph - N/A   Light Drizzle
3:50 PM 39.2 °F - 39.2 °F 100% 29.89 in 1.1 mi NNE 2.3 mph - N/A   Light Drizzle
4:20 PM 39.2 °F - 39.2 °F 100% 29.89 in 1.3 mi Calm Calm - N/A   Overcast
4:50 PM 39.2 °F - 39.2 °F 100% 29.89 in 1.1 mi NE 2.3 mph - N/A   Light Drizzle
5:20 PM 39.2 °F - 39.2 °F 100% 29.92 in 0.7 mi ENE 2.3 mph - N/A   Light Drizzle
5:50 PM 39.2 °F - 39.2 °F 100% 29.89 in 0.4 mi Calm Calm - N/A   Light Drizzle
6:20 PM 39.2 °F - 39.2 °F 100% 29.89 in 0.6 mi Variable 2.3 mph - N/A   Light Drizzle
6:50 PM 39.2 °F - 39.2 °F 100% 29.89 in 0.5 mi NNE 2.3 mph - N/A Fog Light Drizzle
7:20 PM 39.2 °F - 39.2 °F 100% 29.89 in 1.6 mi Calm Calm - N/A   Light Drizzle
7:50 PM 39.2 °F - 39.2 °F 100% 29.89 in 2.2 mi East 2.3 mph - N/A   Light Drizzle
8:20 PM 39.2 °F - 39.2 °F 100% 29.89 in 2.8 mi Calm Calm - N/A   Light Drizzle
8:50 PM 39.2 °F - 39.2 °F 100% 29.89 in 2.5 mi NNW 2.3 mph - N/A   Mostly Cloudy
9:20 PM 39.2 °F 37.0 °F 39.2 °F 100% 29.86 in 5.0 mi NNE 3.5 mph - N/A   Scattered Clouds
9:50 PM 39.2 °F 37.0 °F 39.2 °F 100% 29.86 in 5.0 mi NE 3.5 mph - N/A Rain Light Rain
10:20 PM 39.2 °F - 39.2 °F 100% 29.86 in 4.3 mi Variable 2.3 mph - N/A Rain Light Rain
10:50 PM 39.2 °F 35.9 °F 39.2 °F 100% 29.86 in 4.3 mi ENE 4.6 mph - N/A Rain Light Rain
11:20 PM 41.0 °F 38.0 °F 39.2 °F 93% 29.83 in 5.0 mi NE 4.6 mph - N/A Rain Light Rain
11:50 PM 41.0 °F 36.4 °F 41.0 °F 100% 29.83 in 5.0 mi NE 6.9 mph - N/A   Mostly Cloudy